Time,TemperatureF,DewpointF,PressureIn,WindDirection,WindDirectionDegrees,WindSpeedMPH,WindSpeedGustMPH,Humidity,HourlyPrecipIn,Conditions,Clouds,dailyrainin,SoftwareType,DateUTC
2013-08-20 00:09:00,68.2,63.5,30.06,SSW,193,0.0,0.0,85,0.00,,CLR,0.00,VWS V14.00,2013-08-20 05:09:00,
2013-08-20 00:19:00,68.0,63.0,30.06,SSW,193,0.0,0.0,84,0.00,,CLR,0.00,VWS V14.00,2013-08-20 05:19:00,
2013-08-20 00:29:00,67.8,63.2,30.06,SSW,193,0.0,0.0,85,0.00,,CLR,0.00,VWS V14.00,2013-08-20 05:29:00,
2013-08-20 00:39:00,67.6,63.3,30.06,SSW,193,0.0,0.0,86,0.00,,CLR,0.00,VWS V14.00,2013-08-20 05:39:00,
2013-08-20 00:50:00,67.5,63.5,30.06,SSW,193,0.0,0.0,87,0.00,,CLR,0.00,VWS V14.00,2013-08-20 05:50:00,
2013-08-20 01:00:00,67.3,63.3,30.06,SSW,193,0.0,0.0,87,0.00,,CLR,0.00,VWS V14.00,2013-08-20 06:00:00,
2013-08-20 01:10:00,67.3,63.6,30.06,SSW,193,0.0,0.0,88,0.00,,CLR,0.00,VWS V14.00,2013-08-20 06:10:00,
2013-08-20 01:20:00,67.1,63.4,30.06,SSW,193,0.0,0.0,88,0.00,,CLR,0.00,VWS V14.00,2013-08-20 06:20:00,
2013-08-20 01:29:00,66.9,63.6,30.06,SSW,193,0.0,0.0,89,0.00,,CLR,0.00,VWS V14.00,2013-08-20 06:29:00,
2013-08-20 01:39:00,66.7,63.4,30.06,SSW,193,0.0,0.0,89,0.00,,CLR,0.00,VWS V14.00,2013-08-20 06:39:00,
2013-08-20 01:49:00,66.4,63.0,30.06,SSW,193,0.0,0.0,89,0.00,,,0.00,VWS V14.00,2013-08-20 06:49:00,
2013-08-20 01:59:00,66.0,63.3,30.06,SSW,193,0.0,0.0,91,0.00,,,0.00,VWS V14.00,2013-08-20 06:59:00,
2013-08-20 02:09:00,65.8,63.1,30.06,SE,141,0.0,0.0,91,0.00,,,0.00,VWS V14.00,2013-08-20 07:09:00,
2013-08-20 02:19:00,65.5,63.1,30.06,SE,144,0.0,0.0,92,0.00,,,0.00,VWS V14.00,2013-08-20 07:19:00,
2013-08-20 02:29:00,65.5,63.1,30.06,SE,144,0.0,0.0,92,0.00,,,0.00,VWS V14.00,2013-08-20 07:29:00,
2013-08-20 02:39:00,65.3,62.9,30.06,SE,144,0.0,0.0,92,0.00,,,0.00,VWS V14.00,2013-08-20 07:39:00,
2013-08-20 02:49:00,65.5,63.4,30.06,South,177,0.0,0.0,93,0.00,,,0.00,VWS V14.00,2013-08-20 07:49:00,
2013-08-20 02:59:00,65.5,63.1,30.06,South,186,0.0,0.0,92,0.00,,,0.00,VWS V14.00,2013-08-20 07:59:00,
2013-08-20 03:09:00,65.7,63.3,30.06,South,186,0.0,0.0,92,0.00,,,0.00,VWS V14.00,2013-08-20 08:09:00,
2013-08-20 03:19:00,65.7,63.3,30.06,South,186,0.0,0.0,92,0.00,,,0.00,VWS V14.00,2013-08-20 08:19:00,
2013-08-20 03:29:00,65.7,63.3,30.06,South,186,0.0,0.0,92,0.00,,,0.00,VWS V14.00,2013-08-20 08:29:00,
2013-08-20 03:39:00,65.5,63.1,30.06,South,186,0.0,0.0,92,0.00,,,0.00,VWS V14.00,2013-08-20 08:39:00,
2013-08-20 03:49:00,65.5,63.1,30.06,South,186,0.0,0.0,92,0.00,,,0.00,VWS V14.00,2013-08-20 08:49:00,
2013-08-20 03:59:00,65.1,62.7,30.06,South,186,0.0,0.0,92,0.00,,,0.00,VWS V14.00,2013-08-20 08:59:00,
2013-08-20 04:09:00,64.9,62.6,30.06,South,186,0.0,0.0,92,0.00,,,0.00,VWS V14.00,2013-08-20 09:09:00,
2013-08-20 04:19:00,64.8,62.4,30.06,South,186,0.0,0.0,92,0.00,,,0.00,VWS V14.00,2013-08-20 09:19:00,
2013-08-20 04:29:00,64.6,62.5,30.06,South,186,0.0,0.0,93,0.00,,,0.00,VWS V14.00,2013-08-20 09:29:00,
2013-08-20 04:39:00,64.6,62.8,30.06,South,186,0.0,0.0,94,0.00,,,0.00,VWS V14.00,2013-08-20 09:39:00,
2013-08-20 04:49:00,64.8,63.0,30.06,South,186,0.0,0.0,94,0.00,,,0.00,VWS V14.00,2013-08-20 09:49:00,
2013-08-20 04:59:00,64.9,63.2,30.06,South,185,0.0,0.0,94,0.00,,,0.00,VWS V14.00,2013-08-20 09:59:00,
2013-08-20 05:09:00,64.9,63.2,30.06,South,185,0.0,0.0,94,0.00,,,0.00,VWS V14.00,2013-08-20 10:09:00,
2013-08-20 05:19:00,64.4,62.3,30.09,South,185,0.0,0.0,93,0.00,,,0.00,VWS V14.00,2013-08-20 10:19:00,
2013-08-20 05:28:00,64.0,62.3,30.09,South,185,0.0,0.0,94,0.00,,,0.00,VWS V14.00,2013-08-20 10:28:00,
2013-08-20 05:38:00,63.9,62.1,30.09,South,185,0.0,0.0,94,0.00,,,0.00,VWS V14.00,2013-08-20 10:38:00,
2013-08-20 05:50:00,63.7,62.2,30.09,South,185,0.0,0.0,95,0.00,,,0.00,VWS V14.00,2013-08-20 10:50:00,
2013-08-20 06:00:00,63.5,62.0,30.09,South,185,0.0,0.0,95,0.00,,,0.00,VWS V14.00,2013-08-20 11:00:00,
2013-08-20 06:10:00,63.3,61.9,30.09,South,185,0.0,0.0,95,0.00,,,0.00,VWS V14.00,2013-08-20 11:10:00,
2013-08-20 06:20:00,63.1,61.7,30.09,South,185,0.0,0.0,95,0.00,,,0.00,VWS V14.00,2013-08-20 11:20:00,
2013-08-20 06:29:00,63.3,62.2,30.09,South,185,0.0,0.0,96,0.00,,,0.00,VWS V14.00,2013-08-20 11:29:00,
2013-08-20 06:39:00,63.1,62.0,30.09,South,185,0.0,0.0,96,0.00,,,0.00,VWS V14.00,2013-08-20 11:39:00,
2013-08-20 06:49:00,63.1,62.0,30.09,South,185,0.0,0.0,96,0.00,,,0.00,VWS V14.00,2013-08-20 11:49:00,
2013-08-20 06:59:00,63.1,62.0,30.09,South,185,0.0,0.0,96,0.00,,,0.00,VWS V14.00,2013-08-20 11:59:00,
2013-08-20 07:09:00,63.5,62.6,30.09,South,185,0.0,0.0,97,0.00,,,0.00,VWS V14.00,2013-08-20 12:09:00,
2013-08-20 07:19:00,64.0,63.2,30.09,South,185,0.0,0.0,97,0.00,,,0.00,VWS V14.00,2013-08-20 12:19:00,
2013-08-20 07:29:00,64.6,63.7,30.09,South,181,0.0,0.0,97,0.00,,,0.00,VWS V14.00,2013-08-20 12:29:00,
2013-08-20 07:39:00,64.8,63.6,30.09,SSE,150,0.0,0.0,96,0.00,,,0.00,VWS V14.00,2013-08-20 12:39:00,
2013-08-20 07:49:00,65.3,64.1,30.12,SE,134,5.4,7.2,96,0.00,,,0.00,VWS V14.00,2013-08-20 12:49:00,
2013-08-20 07:59:00,65.8,64.4,30.12,SE,137,0.0,6.3,95,0.00,,,0.00,VWS V14.00,2013-08-20 12:59:00,
2013-08-20 08:09:00,66.7,65.0,30.12,SSE,156,0.0,8.1,94,0.00,,,0.00,VWS V14.00,2013-08-20 13:09:00,
2013-08-20 08:19:00,67.6,65.2,30.12,SSE,154,6.3,6.3,92,0.00,,,0.00,VWS V14.00,2013-08-20 13:19:00,
2013-08-20 08:29:00,68.5,65.8,30.12,South,180,5.4,8.1,91,0.00,,,0.00,VWS V14.00,2013-08-20 13:29:00,
2013-08-20 08:39:00,69.6,65.9,30.12,South,182,5.4,8.1,88,0.00,,,0.00,VWS V14.00,2013-08-20 13:39:00,
2013-08-20 08:49:00,70.3,65.6,30.12,SW,222,0.0,9.8,85,0.00,,CLR,0.00,VWS V14.00,2013-08-20 13:49:00,
2013-08-20 08:59:00,70.5,65.5,30.12,SSE,153,0.0,7.2,84,0.00,,CLR,0.00,VWS V14.00,2013-08-20 13:59:00,
2013-08-20 09:09:00,70.7,65.3,30.12,SSE,160,6.3,7.2,83,0.00,,CLR,0.00,VWS V14.00,2013-08-20 14:09:00,
2013-08-20 09:19:00,71.6,65.8,30.12,SE,143,9.8,9.8,82,0.00,,CLR,0.00,VWS V14.00,2013-08-20 14:19:00,
2013-08-20 09:29:00,72.3,65.8,30.12,South,187,5.4,9.8,80,0.00,,CLR,0.00,VWS V14.00,2013-08-20 14:29:00,
2013-08-20 09:39:00,72.5,65.6,30.12,SSE,150,6.3,10.7,79,0.00,,CLR,0.00,VWS V14.00,2013-08-20 14:39:00,
2013-08-20 09:50:00,73.0,66.5,30.12,SSE,165,0.0,8.1,80,0.00,,CLR,0.00,VWS V14.00,2013-08-20 14:50:00,
2013-08-20 10:00:00,74.7,66.6,30.12,South,177,0.0,13.4,76,0.00,,CLR,0.00,VWS V14.00,2013-08-20 15:00:00,
2013-08-20 10:09:00,75.7,66.1,30.12,SW,218,8.1,11.6,72,0.00,,CLR,0.00,VWS V14.00,2013-08-20 15:09:00,
2013-08-20 10:19:00,76.3,65.8,30.12,South,171,6.3,8.1,70,0.00,,CLR,0.00,VWS V14.00,2013-08-20 15:19:00,
2013-08-20 10:29:00,76.5,65.5,30.12,SSW,197,6.3,10.7,69,0.00,,CLR,0.00,VWS V14.00,2013-08-20 15:29:00,
2013-08-20 10:39:00,77.0,66.1,30.12,SW,234,4.5,8.9,69,0.00,,CLR,0.00,VWS V14.00,2013-08-20 15:39:00,
2013-08-20 10:49:00,77.9,66.9,30.12,SSE,164,7.2,11.6,69,0.00,,CLR,0.00,VWS V14.00,2013-08-20 15:49:00,
2013-08-20 10:59:00,79.0,66.7,30.12,SSW,200,7.2,11.6,66,0.00,,CLR,0.00,VWS V14.00,2013-08-20 15:59:00,
2013-08-20 11:09:00,78.6,66.3,30.12,SSW,206,0.0,8.1,66,0.00,,CLR,0.00,VWS V14.00,2013-08-20 16:09:00,
2013-08-20 11:19:00,78.6,66.3,30.12,SW,224,5.4,12.5,66,0.00,,CLR,0.00,VWS V14.00,2013-08-20 16:19:00,
2013-08-20 11:29:00,78.6,66.3,30.12,SSW,211,4.5,7.2,66,0.00,,CLR,0.00,VWS V14.00,2013-08-20 16:29:00,
2013-08-20 11:39:00,79.7,66.9,30.12,SW,236,5.4,9.8,65,0.00,,CLR,0.00,VWS V14.00,2013-08-20 16:39:00,
2013-08-20 11:49:00,81.1,66.4,30.12,South,190,0.0,17.4,61,0.00,,CLR,0.00,VWS V14.00,2013-08-20 16:49:00,
2013-08-20 11:59:00,81.3,66.6,30.12,SSW,206,5.4,9.8,61,0.00,,CLR,0.00,VWS V14.00,2013-08-20 16:59:00,
2013-08-20 12:09:00,81.3,65.1,30.09,SSW,192,6.3,11.6,58,0.00,,CLR,0.00,VWS V14.00,2013-08-20 17:09:00,
2013-08-20 12:19:00,82.2,66.0,30.09,SSW,207,6.3,12.5,58,0.00,,CLR,0.00,VWS V14.00,2013-08-20 17:19:00,
2013-08-20 12:29:00,82.4,65.7,30.09,South,184,5.4,11.6,57,0.00,,CLR,0.00,VWS V14.00,2013-08-20 17:29:00,
2013-08-20 12:39:00,82.6,66.8,30.09,South,191,5.4,12.5,59,0.00,,CLR,0.00,VWS V14.00,2013-08-20 17:39:00,
2013-08-20 12:49:00,82.9,65.1,30.09,SSE,159,7.2,12.5,55,0.00,,CLR,0.00,VWS V14.00,2013-08-20 17:49:00,
2013-08-20 12:59:00,82.9,65.7,30.09,SSW,198,8.1,16.1,56,0.00,,CLR,0.00,VWS V14.00,2013-08-20 17:59:00,
2013-08-20 13:09:00,83.3,66.5,30.09,SSW,206,10.7,12.5,57,0.00,,CLR,0.00,VWS V14.00,2013-08-20 18:09:00,
2013-08-20 13:19:00,83.3,65.5,30.09,SE,144,6.3,10.7,55,0.00,,CLR,0.00,VWS V14.00,2013-08-20 18:19:00,
2013-08-20 13:29:00,83.7,65.8,30.09,SSE,160,14.3,15.2,55,0.00,,CLR,0.00,VWS V14.00,2013-08-20 18:29:00,
2013-08-20 13:39:00,83.8,64.9,30.09,South,188,6.3,15.2,53,0.00,,CLR,0.00,VWS V14.00,2013-08-20 18:39:00,
2013-08-20 13:49:00,83.8,64.3,30.09,SSW,199,5.4,11.6,52,0.00,,SCT095,0.00,VWS V14.00,2013-08-20 18:49:00,
2013-08-20 13:59:00,84.4,64.8,30.09,South,172,8.1,16.1,52,0.00,,SCT095,0.00,VWS V14.00,2013-08-20 18:59:00,
2013-08-20 14:09:00,83.5,64.6,30.09,SE,142,5.4,9.8,53,0.00,,SCT036,0.00,VWS V14.00,2013-08-20 19:09:00,
2013-08-20 14:18:00,83.8,62.7,30.09,SSW,201,8.1,11.6,49,0.00,,SCT036,0.00,VWS V14.00,2013-08-20 19:18:00,
2013-08-20 14:28:00,83.7,63.6,30.09,SW,224,5.4,11.6,51,0.00,,SCT036,0.00,VWS V14.00,2013-08-20 19:28:00,
2013-08-20 14:38:00,84.2,63.6,30.06,SW,236,7.2,12.5,50,0.00,,SCT110,0.00,VWS V14.00,2013-08-20 19:38:00,
2013-08-20 14:50:00,84.4,63.7,30.06,South,181,6.3,15.2,50,0.00,,CLR,0.00,VWS V14.00,2013-08-20 19:50:00,
2013-08-20 14:59:00,84.7,62.9,30.06,SW,229,6.3,11.6,48,0.00,,CLR,0.00,VWS V14.00,2013-08-20 19:59:00,
2013-08-20 15:09:00,84.9,63.1,30.06,WSW,245,4.5,16.6,48,0.00,,SCT075,0.00,VWS V14.00,2013-08-20 20:09:00,
2013-08-20 15:20:00,84.9,63.1,30.06,South,188,10.7,12.5,48,0.00,,SCT075,0.00,VWS V14.00,2013-08-20 20:20:00,
2013-08-20 15:29:00,85.3,62.8,30.06,SSE,151,5.4,16.6,47,0.00,,SCT075,0.00,VWS V14.00,2013-08-20 20:29:00,
2013-08-20 15:39:00,85.3,62.8,30.06,SSW,212,8.1,13.4,47,0.00,,SCT075,0.00,VWS V14.00,2013-08-20 20:39:00,
2013-08-20 15:49:00,85.3,62.2,30.06,SW,228,0.0,16.1,46,0.00,,SCT055,0.00,VWS V14.00,2013-08-20 20:49:00,
2013-08-20 15:59:00,85.5,63.0,30.06,SSW,195,8.1,14.3,47,0.00,,SCT055,0.00,VWS V14.00,2013-08-20 20:59:00,
2013-08-20 16:09:00,85.3,62.2,30.06,SSE,148,9.8,10.7,46,0.00,,SCT070,0.00,VWS V14.00,2013-08-20 21:09:00,
2013-08-20 16:19:00,85.1,62.0,30.03,ESE,121,8.1,12.5,46,0.00,,SCT070,0.00,VWS V14.00,2013-08-20 21:19:00,
2013-08-20 16:29:00,85.3,62.2,30.03,SSW,195,6.3,16.6,46,0.00,,SCT070,0.00,VWS V14.00,2013-08-20 21:29:00,
2013-08-20 16:39:00,85.3,61.6,30.03,South,173,9.8,9.8,45,0.00,,SCT110,0.00,VWS V14.00,2013-08-20 21:39:00,
2013-08-20 16:49:00,85.1,60.8,30.03,SSW,210,8.1,9.8,44,0.00,,SCT120,0.00,VWS V14.00,2013-08-20 21:49:00,
2013-08-20 16:59:00,84.9,60.6,30.03,SSW,209,0.0,16.6,44,0.00,,SCT120,0.00,VWS V14.00,2013-08-20 21:59:00,
2013-08-20 17:09:00,84.7,60.4,30.03,SSW,213,0.0,12.5,44,0.00,,SCT070,0.00,VWS V14.00,2013-08-20 22:09:00,
2013-08-20 17:19:00,84.9,60.6,30.03,SW,215,7.2,8.1,44,0.00,,SCT070,0.00,VWS V14.00,2013-08-20 22:19:00,
2013-08-20 17:29:00,84.9,61.2,30.03,South,186,0.0,8.1,45,0.00,,SCT070,0.00,VWS V14.00,2013-08-20 22:29:00,
2013-08-20 17:39:00,84.6,60.9,30.03,SSW,199,0.0,12.5,45,0.00,,SCT110,0.00,VWS V14.00,2013-08-20 22:39:00,
2013-08-20 17:49:00,84.4,60.1,30.03,SSE,153,5.4,14.3,44,0.00,,CLR,0.00,VWS V14.00,2013-08-20 22:49:00,
2013-08-20 17:59:00,84.2,60.0,30.03,SW,214,5.4,10.7,44,0.00,,CLR,0.00,VWS V14.00,2013-08-20 22:59:00,
2013-08-20 18:09:00,83.5,60.5,30.03,SSE,151,10.7,10.7,46,0.00,,CLR,0.00,VWS V14.00,2013-08-20 23:09:00,
2013-08-20 18:19:00,83.1,60.8,30.03,South,191,0.0,10.7,47,0.00,,CLR,0.00,VWS V14.00,2013-08-20 23:19:00,
2013-08-20 18:29:00,82.8,61.7,30.03,SSE,163,0.0,5.4,49,0.00,,CLR,0.00,VWS V14.00,2013-08-20 23:29:00,
2013-08-20 18:39:00,82.2,61.8,30.03,South,169,0.0,0.0,50,0.00,,CLR,0.00,VWS V14.00,2013-08-20 23:39:00,
2013-08-20 19:00:00,81.1,62.4,30.03,SSE,147,0.0,0.0,53,0.00,,CLR,0.00,VWS V14.00,2013-08-21 00:00:00,
2013-08-20 19:10:00,80.6,63.0,30.03,SE,146,0.0,0.0,55,0.00,,CLR,0.00,VWS V14.00,2013-08-21 00:10:00,
2013-08-20 19:20:00,80.1,63.0,30.03,South,173,0.0,0.0,56,0.00,,CLR,0.00,VWS V14.00,2013-08-21 00:20:00,
2013-08-20 19:29:00,79.3,63.3,30.03,South,173,0.0,0.0,58,0.00,,CLR,0.00,VWS V14.00,2013-08-21 00:29:00,
2013-08-20 19:39:00,78.4,63.4,30.03,SSE,165,0.0,0.0,60,0.00,,CLR,0.00,VWS V14.00,2013-08-21 00:39:00,
2013-08-20 19:49:00,77.7,63.7,30.03,SSE,165,0.0,0.0,62,0.00,,CLR,0.00,VWS V14.00,2013-08-21 00:49:00,
2013-08-20 19:59:00,76.8,63.7,30.03,SSE,165,0.0,0.0,64,0.00,,CLR,0.00,VWS V14.00,2013-08-21 00:59:00,
2013-08-20 20:09:00,76.3,63.7,30.03,SSE,165,0.0,0.0,65,0.00,,CLR,0.00,VWS V14.00,2013-08-21 01:09:00,
2013-08-20 20:19:00,76.1,63.9,30.03,SSE,165,0.0,0.0,66,0.00,,CLR,0.00,VWS V14.00,2013-08-21 01:19:00,
2013-08-20 20:29:00,75.6,63.8,30.03,SSE,165,0.0,0.0,67,0.00,,CLR,0.00,VWS V14.00,2013-08-21 01:29:00,
2013-08-20 20:39:00,75.2,63.9,30.03,SSE,165,0.0,0.0,68,0.00,,CLR,0.00,VWS V14.00,2013-08-21 01:39:00,
2013-08-20 20:49:00,74.5,63.7,30.06,SSE,165,0.0,0.0,69,0.00,,CLR,0.00,VWS V14.00,2013-08-21 01:49:00,
2013-08-20 20:59:00,73.9,64.0,30.06,SSE,165,0.0,0.0,71,0.00,,CLR,0.00,VWS V14.00,2013-08-21 01:59:00,
2013-08-20 21:09:00,73.2,64.1,30.06,SSE,165,0.0,0.0,73,0.00,,CLR,0.00,VWS V14.00,2013-08-21 02:09:00,
2013-08-20 21:19:00,72.9,64.5,30.06,SSE,165,0.0,0.0,75,0.00,,CLR,0.00,VWS V14.00,2013-08-21 02:19:00,
2013-08-20 21:29:00,72.5,64.1,30.06,SSE,165,0.0,0.0,75,0.00,,CLR,0.00,VWS V14.00,2013-08-21 02:29:00,
2013-08-20 21:39:00,72.1,64.2,30.06,SSE,165,0.0,0.0,76,0.00,,CLR,0.00,VWS V14.00,2013-08-21 02:39:00,
2013-08-20 21:49:00,71.8,64.2,30.06,SSE,165,0.0,0.0,77,0.00,,CLR,0.00,VWS V14.00,2013-08-21 02:49:00,
2013-08-20 21:59:00,71.6,64.4,30.06,SSE,165,0.0,0.0,78,0.00,,CLR,0.00,VWS V14.00,2013-08-21 02:59:00,
2013-08-20 22:09:00,71.1,64.2,30.06,SSE,165,0.0,0.0,79,0.00,,CLR,0.00,VWS V14.00,2013-08-21 03:09:00,
2013-08-20 22:19:00,70.9,64.1,30.06,SSE,165,0.0,0.0,79,0.00,,CLR,0.00,VWS V14.00,2013-08-21 03:19:00,
2013-08-20 22:29:00,70.5,64.1,30.06,SSE,165,0.0,0.0,80,0.00,,CLR,0.00,VWS V14.00,2013-08-21 03:29:00,
2013-08-20 22:38:00,70.3,63.9,30.06,SSE,165,0.0,0.0,80,0.00,,CLR,0.00,VWS V14.00,2013-08-21 03:38:00,
2013-08-20 22:48:00,70.2,64.1,30.06,SSE,165,0.0,0.0,81,0.00,,CLR,0.00,VWS V14.00,2013-08-21 03:48:00,
2013-08-20 23:00:00,70.0,63.9,30.06,SSE,165,0.0,0.0,81,0.00,,CLR,0.00,VWS V14.00,2013-08-21 04:00:00,
2013-08-20 23:09:00,70.0,63.9,30.06,SSE,165,0.0,0.0,81,0.00,,CLR,0.00,VWS V14.00,2013-08-21 04:09:00,
2013-08-20 23:20:00,69.8,63.7,30.06,SSE,165,0.0,0.0,81,0.00,,CLR,0.00,VWS V14.00,2013-08-21 04:20:00,
2013-08-20 23:29:00,69.8,63.7,30.06,SSE,165,0.0,0.0,81,0.00,,CLR,0.00,VWS V14.00,2013-08-21 04:29:00,
2013-08-20 23:39:00,69.8,63.7,30.06,SSE,165,0.0,0.0,81,0.00,,CLR,0.00,VWS V14.00,2013-08-21 04:39:00,
2013-08-20 23:49:00,69.6,63.9,30.06,SSE,165,0.0,0.0,82,0.00,,CLR,0.00,VWS V14.00,2013-08-21 04:49:00,
2013-08-20 23:59:00,69.4,63.7,30.06,SSE,165,0.0,0.0,82,0.00,,CLR,0.00,VWS V14.00,2013-08-21 04:59:00,